Location: Newark
(41.9364°N, 2.8061°E)
Time: 09:13:06
(UTC+00:00)

SR - All Passes

Search period start: 17 February 2020 00:00
Search period end: 27 February 2020 00:00
Orbit: 575 x 881 km, 66.7° (Epoch: 17 February)

Date Brightness Start Highest point End Pass type
(mag) Time Alt. Az. Time Alt. Az. Time Alt. Az.
17 Feb - 00:42:24 10° NNW 00:47:28 41° NE 00:52:05 10° ESE night (unlit)
17 Feb - 02:24:58 10° NW 02:29:17 27° WSW 02:33:16 10° SSW night (unlit)
17 Feb - 15:12:07 10° SSE 15:17:04 29° ESE 15:22:01 10° NE daylight
17 Feb - 16:53:11 10° SW 16:58:56 50° NW 17:04:39 10° NNE daylight
17 Feb - 18:40:04 10° WNW 18:42:26 12° NNW 18:44:46 10° N visible
17 Feb - 23:53:06 10° N 23:57:24 23° NE 00:01:24 10° E night (unlit)
18 Feb - 01:34:45 10° NW 01:39:54 55° WSW 01:44:34 10° SSE night (unlit)
18 Feb - 14:24:40 10° SE 14:27:47 15° ESE 14:30:55 10° ENE daylight
18 Feb - 16:03:13 10° SSW 16:09:09 88° WNW 16:15:04 10° NNE daylight
18 Feb - 17:47:53 10° W 17:52:04 19° NW 17:56:11 10° N visible
18 Feb - 23:04:13 10° N 23:07:07 14° NE 23:09:55 10° ENE night (unlit)
19 Feb - 00:44:58 10° NNW 00:50:17 74° ENE 00:55:06 10° SE night (unlit)
19 Feb - 02:29:07 10° WNW 02:31:31 13° WSW 02:33:50 10° SW night (unlit)
19 Feb - 15:13:52 10° S 15:19:33 51° ESE 15:25:13 10° NE daylight
19 Feb - 16:56:43 10° WSW 17:01:54 31° NW 17:07:04 10° NNE daylight
19 Feb - 23:55:28 10° NNW 00:00:26 38° NE 00:05:00 10° ESE night (unlit)
20 Feb - 01:37:57 10° NW 01:42:19 28° WSW 01:46:22 10° SSW night (unlit)
20 Feb - 14:25:17 10° SSE 14:30:07 27° ESE 14:34:59 10° NE daylight
20 Feb - 16:06:10 10° SW 16:11:57 53° NW 16:17:41 10° NNE daylight
20 Feb - 17:52:50 10° WNW 17:55:23 13° NW 17:57:56 10° N visible
20 Feb - 23:06:13 10° N 23:10:22 22° NE 23:14:15 10° E night (unlit)
21 Feb - 00:47:47 10° NW 00:52:55 59° WSW 00:57:35 10° SSE night (unlit)
21 Feb - 13:38:02 10° SE 13:40:52 14° ESE 13:43:42 10° ENE daylight
21 Feb - 15:16:15 10° SSW 15:22:11 88° ESE 15:28:05 10° NNE daylight
21 Feb - 17:00:46 10° W 17:05:03 20° NW 17:09:16 10° N daylight
21 Feb - 22:17:23 10° N 22:20:05 14° NE 22:22:40 10° ENE visible
21 Feb - 23:58:01 10° NNW 00:03:18 69° ENE 00:08:04 10° SE night (unlit)
22 Feb - 01:41:56 10° WNW 01:44:35 14° WSW 01:47:06 10° SW night (unlit)
22 Feb - 14:26:58 10° S 14:32:36 48° ESE 14:38:13 10° NE daylight
22 Feb - 16:09:38 10° WSW 16:14:54 32° NW 16:20:07 10° NNE daylight
22 Feb - 23:08:32 10° NNW 23:13:26 36° NE 23:17:54 10° ESE night (unlit)
23 Feb - 00:50:55 10° NW 00:55:22 30° WSW 00:59:28 10° S night (unlit)
23 Feb - 13:38:27 10° SSE 13:43:11 26° ESE 13:47:55 10° NE daylight
23 Feb - 15:19:10 10° SW 15:24:58 55° NW 15:30:43 10° NNE daylight
23 Feb - 17:05:36 10° WNW 17:08:21 13° NW 17:11:04 10° N daylight
23 Feb - 22:19:19 10° N 22:23:20 21° NE 22:27:05 10° E visible
24 Feb - 00:00:48 10° NW 00:05:57 63° WSW 00:10:37 10° SSE night (unlit)
24 Feb - 12:51:26 10° SE 12:53:57 13° ESE 12:56:27 10° ENE daylight
24 Feb - 14:29:18 10° SSW 14:35:13 84° ESE 14:41:06 10° NNE daylight
24 Feb - 16:13:39 10° W 16:18:01 21° NW 16:22:20 10° N daylight
24 Feb - 21:30:36 10° N 21:33:02 13° NE 21:35:22 10° ENE visible
24 Feb - 23:11:04 10° NNW 23:16:18 65° ENE 23:21:01 10° SE night (unlit)
25 Feb - 00:54:48 10° WNW 00:57:38 15° WSW 01:00:21 10° SW night (unlit)
25 Feb - 13:40:04 10° S 13:45:39 45° ESE 13:51:13 10° NE daylight
25 Feb - 15:22:34 10° WSW 15:27:55 34° NW 15:33:10 10° NNE daylight
25 Feb - 22:21:36 10° NNW 22:26:24 34° NE 22:30:48 10° ESE visible
26 Feb - 00:03:54 10° NW 00:08:24 32° WSW 00:12:33 10° S night (unlit)
26 Feb - 12:51:39 10° SSE 12:56:15 24° ESE 13:00:51 10° NE daylight
26 Feb - 14:32:09 10° SW 14:37:59 58° NW 14:43:45 10° NNE daylight
26 Feb - 16:18:23 10° WNW 16:21:18 14° NW 16:24:11 10° N daylight
26 Feb - 21:32:26 10° N 21:36:18 20° NE 21:39:56 10° E visible
26 Feb - 23:13:49 10° NW 23:18:58 67° WSW 23:23:37 10° SSE night (unlit)
